SCP
0 0 0 0 0 0 0 0 0 0 0 0 0 0 0 0 0 0 0 0 0 0 0 0 0 0 0 0 0 0 0 0 0 0 0 0 0 0 0 0 0 0 0
0 0 0 0 0 0 0 0 0 0 0 0 0 0 0 0 0 0 0 0 0 0 0 0 0 0 0 0 0 0 0 0 0 0 0 0 0 0 0 0 0 0 0
0 0 0 0 0 0 0 0 0 0 0 0 0 0 0 0 0 0 0 0 0 0 0 0 0 0 0 0 0 0 0 0 0 0 0 0 0 0 0 0 0 0 0
0 0 0 0 0 0 0 0 0 0 0 0 0 0 0 0 0 0 0 0 0 0 0 0 0 0 0 0 0 0 0 0 0 0 0 0 0 0 0 0 0 0 0
0 0 0 0 0 0 0 0 0 0 0 0 0 0 0 0 0 0 0 0 0 0 0 0 0 0 0 0 0 0 0 0 0 0 0 0 0 0 0 0 0 0 0
0 0 0 0 0 0 0 0 0 0 0 0 0 0 0 0 0 0 0 0 0 0 0 0 0 0 0 0 0 0 0 0 0 0 0 0 0 0 0 0 0 0 0
0 0 0 0 0 0 0 0 0 0 0 0 0 0 0 0 0 0 0 0 0 0 0 0 0 0 0 0 0 0 0 0 0 0 0 0 0 0 0 0 0 0 0
0 0 0 0 0 0 0 0 0 0 0 0 0 0 0 0 0 0 0 0 0 0 0 0 0 0 0 0 0 0 0 0 0 0 0 0 0 0 0 0 0 0 0
0 0 0 0 0 0 0 0 0 0 0 0 0 0 0 0 0 0 0 0 0 0 0 0 0 0 0 0 0 0 0 0 0 0 0 0 0 0 0 0 0 0 0
0 0 0 0 0 0 0 0 0 0 0 0 0 0 0 0 0 0 0 0 0 0 0 0 0 0 0 0 0 0 0 0 0 0 0 0 0 0 0 0 0 0 0
0 0 0 0 0 0 0 0 0 0 0 0 0 0 0 0 0 0 0 0 0 0 0 0 0 0 0 0 0 0 0 0 0 0 0 0 0 0 0 1 1 1 1
0 0 0 0 0 0 0 0 0 0 0 0 0 0 0 0 0 0 0 0 0 0 0 0 0 0 0 0 0 0 0 0 0 0 0 0 0 0 0 0 1 1 1
0 0 0 0 0 0 0 0 0 0 0 0 0 0 0 0 0 0 0 0 0 0 0 0 0 0 0 0 0 0 0 0 0 0 0 0 0 0 0 0 0 0 0
0 0 0 0 0 0 0 0 0 0 0 0 0 0 0 0 0 0 0 0 0 0 0 0 0 0 0 0 0 0 0 0 0 0 0 0 0 0 0 0 0 0 0
0 0 0 0 0 0 0 0 0 0 0 0 0 0 0 0 0 0 0 0 0 0 0 0 0 0 0 0 0 0 0 0 0 0 0 0 0 0 0 0 0 0 0
0 0 0 0 0 0 0 0 0 0 0 0 0 0 0 0 0 0 0 0 0 0 0 0 0 0 0 0 0 0 0 0 0 0 0 0 0 0 0 0 0 0 0
0 0 0 0 0 0 0 0 0 0 0 0 0 0 0 0 0 0 0 0 0 0 0 0 0 0 0 0 0 0 0 0 0 0 0 0 0 0 0 0 0 0 0
0 0 0 0 0 0 0 0 0 0 0 0 0 0 0 0 0 0 0 0 0 0 0 0 0 0 0 0 0 0 0 0 0 0 0 0 0 0 0 0 0 0 0
0 0 0 0 0 0 0 0 0 0 0 0 0 0 0 0 0 0 0 0 0 0 0 0 0 0 0 0 0 0 0 0 0 0 0 0 0 0 0 0 0 0 0
0 0 0 0 0 0 0 0 0 0 0 0 0 0 0 0 0 0 0 0 0 0 0 0 0 0 0 0 0 0 0 0 0 0 0 0 0 0 0 0 0 0 0
0 0 0 0 0 0 0 0 0 0 0 0 0 0 0 0 0 0 0 0 0 0 0 0 0 0 0 0 0 0 0 0 0 0 0 0 0 0 0 0 0 0 0
0 0 0 0 0 0 0 0 0 0 0 0 0 0 0 0 0 0 0 0 0 0 0 0 0 0 0 0 0 0 0 0 0 0 0 0 0 0 0 0 0 0 0
0 0 0 0 0 0 0 0 0 0 0 0 0 0 0 0 0 0 0 0 0 0 0 0 0 0 0 0 0 0 0 0 0 0 0 0 0 0 0 0 0 0 0
0 0 0 0 0 0 0 0 0 0 0 0 0 0 0 0 0 0 0 0 0 0 0 0 0 0 0 0 0 0 0 0 0 0 0 0 0 0 0 0 0 0 0
0 0 0 0 0 0 0 0 0 0 0 0 0 0 0 0 0 0 0 0 0 0 0 0 0 0 0 0 0 0 0 0 0 0 0 0 0 0 0 0 0 0 0
0 0 0 0 0 0 0 0 0 0 0 0 0 0 0 0 0 0 0 0 0 0 0 0 0 0 0 0 0 0 0 0 0 0 0 0 0 0 0 0 0 0 0
Wind_Speed
4 4 3 3 4 3 3 4 4 4 5 5 5 5 6 6 6 5 5 14 16 17 19 19 19 19 19 19 19 19 19 19 19 19 19 18 18 18 18 17 17 16 16
4 4 4 4 4 4 4 4 5 5 4 4 5 5 6 6 6 6 6 9 16 19 20 21 21 21 21 20 20 20 21 21 21 21 21 21 21 20 20 20 19 19 19
5 5 4 4 4 4 4 3 4 3 3 4 5 5 5 5 6 6 6 5 7 14 20 22 22 22 22 22 22 21 21 22 22 22 22 22 23 22 22 22 22 21 21
5 4 3 3 3 3 2 2 3 2 3 3 4 4 4 4 6 6 6 6 5 6 12 20 22 23 23 23 22 22 22 22 22 23 23 24 24 24 24 24 24 24 23
3 3 3 3 2 2 2 2 2 2 3 4 4 4 4 4 6 6 7 7 7 7 6 13 20 22 23 23 23 23 22 22 22 23 23 24 24 25 26 26 26 26 26
2 2 2 2 2 1 1 1 2 2 2 3 4 5 5 6 5 6 7 6 6 7 6 7 8 11 19 22 22 23 23 23 23 23 23 24 24 25 26 26 27 27 27
1 1 1 1 1 1 2 2 2 2 2 1 2 4 5 5 5 5 5 5 6 6 6 6 5 5 7 17 21 23 23 24 24 23 23 23 24 25 25 26 27 28 28
1 1 2 1 1 1 2 2 1 1 2 1 1 3 5 5 4 4 3 4 5 4 4 5 5 5 5 5 12 22 24 25 25 25 24 24 24 24 25 26 26 27 28
0 1 1 1 1 1 2 2 2 3 3 2 2 2 3 4 4 4 4 4 4 4 4 4 6 6 7 6 7 14 21 24 25 26 26 25 25 25 25 25 26 27 27
1 0 0 1 1 1 2 3 2 2 3 3 2 3 5 4 4 5 3 4 5 6 6 6 6 7 7 6 9 17 22 24 25 26 27 27 26 26 26 25 25 26 26
2 1 1 0 1 1 2 3 3 3 2 3 3 3 3 3 5 6 9 5 4 5 5 6 7 7 8 7 7 13 23 24 25 26 26 27 27 27 27 26 25 25 25
2 2 1 1 1 2 3 3 3 4 3 4 4 3 4 4 4 5 8 9 8 6 6 6 7 7 7 7 10 20 22 23 24 25 25 26 27 27 27 27 26 25 25
1 2 1 1 2 3 3 3 3 4 4 4 5 4 4 5 5 5 8 10 10 6 5 5 7 7 7 6 8 19 21 23 24 25 25 26 26 27 27 27 27 26 26
2 2 2 3 3 4 4 3 3 4 4 5 6 6 5 5 5 5 5 8 12 8 5 7 5 6 6 6 11 20 13 23 25 25 26 26 26 26 26 26 26 26 26
2 2 2 3 4 4 4 4 3 5 5 5 5 6 5 5 4 5 5 5 7 13 11 5 4 5 6 6 13 10 8 18 25 26 27 26 26 26 26 26 26 25 25
2 3 3 4 4 5 5 4 4 5 5 6 5 6 6 5 5 4 5 5 5 9 14 5 5 6 7 9 15 11 9 24 26 27 27 27 27 27 27 26 26 26 26
2 3 4 4 5 5 5 5 6 6 7 7 7 7 8 7 5 5 5 5 6 7 14 11 5 6 8 9 11 9 10 10 11 24 26 26 26 26 26 26 26 26 26
3 4 4 5 5 6 6 6 7 7 7 8 8 8 9 7 8 6 6 7 7 8 11 17 10 6 8 9 10 11 11 11 8 19 25 26 26 26 25 25 25 25 24
4 4 4 5 6 7 7 7 7 8 8 9 9 9 9 9 9 8 8 8 8 9 9 12 13 8 7 7 9 10 11 10 11 15 20 22 22 23 24 24 24 24 23
4 5 6 6 7 7 7 8 8 8 9 9 9 9 9 9 10 10 9 9 9 10 10 11 12 10 8 7 7 7 8 6 8 10 14 16 20 23 23 24 23 23 22
5 6 6 7 7 6 7 8 7 8 8 9 9 9 10 13 17 15 12 9 9 9 9 10 11 11 8 6 7 6 10 8 8 8 8 9 9 8 10 16 20 21 21
6 6 7 7 8 8 15 19 15 8 7 8 8 8 10 12 16 22 24 23 20 13 11 11 11 12 12 9 8 8 9 10 9 4 6 7 6 7 7 7 15 20 21
6 7 7 7 8 11 19 21 21 12 8 7 8 8 9 10 17 10 17 22 21 24 24 16 14 14 14 11 11 12 11 12 12 6 6 10 7 9 7 10 19 21 21
6 7 8 8 8 11 20 21 22 12 8 8 9 9 10 10 11 14 12 12 12 13 16 13 12 13 13 13 13 14 14 13 12 9 8 9 8 8 8 7 16 21 20
7 7 7 8 9 12 19 22 22 8 7 9 9 10 11 11 18 24 16 13 13 11 17 23 25 23 26 26 20 11 9 10 11 7 5 6 6 6 6 6 10 18 18
7 7 8 8 9 10 17 21 22 7 8 8 8 9 16 18 23 25 15 12 15 13 11 13 15 17 15 16 21 12 8 10 9 7 4 4 4 3 4 3 4 4 6
Wind_Direction
198 199 201 199 203 204 210 221 231 242 247 252 250 245 247 246 247 246 255 264 272 279 283 284 284 283 283 282 280 276 272 270 268 267 264 261 260 258 256 255 254 253 253
194 195 204 204 208 210 214 218 224 230 236 241 251 247 244 246 248 248 245 261 270 277 282 284 284 284 284 283 282 281 279 274 270 268 266 264 261 259 257 255 254 253 252
194 196 202 207 213 214 219 226 234 233 240 243 251 255 252 250 253 256 255 251 262 274 279 283 284 284 284 284 283 283 282 280 277 273 269 266 264 261 259 256 255 253 252
196 196 202 214 217 209 213 227 237 246 252 255 260 263 262 263 262 261 260 257 253 259 273 280 283 284 284 285 285 285 284 284 282 280 276 272 268 264 262 259 255 253 251
190 188 202 217 216 214 226 241 243 240 259 268 270 270 266 264 265 268 267 265 260 258 257 275 281 283 285 285 286 287 286 286 284 283 282 279 275 271 266 262 259 256 253
189 187 202 219 211 212 239 246 257 257 257 268 284 284 273 265 262 262 267 273 273 269 266 266 275 282 284 286 287 287 288 287 286 285 283 283 281 278 273 269 264 260 256
182 180 201 220 203 216 240 250 259 277 278 279 306 303 286 273 271 267 267 273 277 278 279 274 270 267 282 286 289 290 290 290 289 288 285 284 283 282 280 276 271 266 261
152 169 190 210 215 229 259 262 247 269 275 249 255 313 318 322 320 281 273 266 269 282 289 289 285 276 271 273 280 288 290 290 289 288 286 284 282 281 281 281 278 274 269
128 168 193 201 225 218 250 259 245 238 266 274 199 217 278 285 303 282 270 266 277 281 281 284 281 278 275 270 274 286 290 291 290 288 286 284 282 280 279 278 278 278 275
10 5 178 193 233 239 256 263 249 235 235 265 266 227 228 243 279 299 286 277 275 273 272 277 279 277 273 271 274 285 292 293 291 289 286 284 282 280 278 277 277 278 278
0 5 35 42 312 285 277 276 277 258 232 240 246 250 257 254 236 263 286 285 280 261 259 262 266 269 270 267 268 278 290 292 292 291 289 287 285 282 280 278 278 279 280
345 348 354 345 300 285 277 273 269 267 256 252 251 241 240 248 253 252 275 287 283 271 255 252 257 260 262 263 267 281 288 291 292 293 292 290 288 285 282 280 278 278 279
310 302 314 305 293 284 283 280 277 275 266 261 257 253 247 247 250 259 275 287 287 281 258 248 248 254 260 256 262 277 284 287 289 290 291 291 290 288 285 281 278 277 277
254 274 291 292 291 293 294 292 284 277 273 267 269 267 264 262 257 255 264 287 296 290 264 257 253 251 261 261 264 278 278 282 286 287 288 288 288 287 286 283 279 277 276
264 290 298 299 298 298 295 295 282 281 281 271 269 269 265 263 260 258 257 257 279 296 293 263 265 258 261 264 274 276 264 276 285 286 286 285 285 286 285 282 279 277 275
295 309 307 303 301 299 296 292 284 279 279 274 267 268 267 265 262 257 253 254 251 275 287 275 268 267 273 281 285 286 279 287 289 289 287 285 284 283 283 282 280 278 275
298 298 297 298 297 295 293 288 283 283 279 279 278 274 271 270 266 261 256 256 259 264 283 289 268 267 266 271 280 277 277 276 277 283 284 284 284 283 282 281 280 278 276
287 288 291 293 292 290 288 284 284 284 279 279 279 276 275 276 268 264 261 262 265 263 275 288 288 273 265 265 268 270 277 276 270 280 283 284 283 283 282 282 281 279 278
287 290 289 287 286 286 285 281 276 277 274 272 272 271 273 273 273 269 265 267 268 271 269 279 286 280 271 267 270 270 270 271 272 278 282 283 283 285 284 283 282 280 279
280 283 282 280 280 282 283 280 278 274 271 269 266 264 265 263 267 271 271 267 267 270 270 275 283 284 278 265 264 272 277 266 268 273 275 277 279 281 283 284 284 284 283
272 274 280 282 282 283 278 280 275 268 267 269 267 262 262 270 275 281 283 275 270 271 276 279 283 286 283 276 270 267 278 277 267 258 262 265 269 268 273 278 282 283 282
274 275 276 278 281 284 298 304 303 286 275 272 273 270 270 279 285 289 292 293 290 285 282 280 283 283 285 278 275 273 278 282 282 240 248 262 254 261 261 256 269 275 276
272 276 275 273 274 280 297 304 305 303 284 275 273 274 281 281 292 282 285 288 287 285 284 283 281 280 282 279 277 277 272 271 272 260 257 271 258 260 259 264 272 274 275
268 270 273 272 273 281 298 306 307 302 281 272 270 271 274 276 276 283 275 272 268 271 274 276 268 268 270 270 263 266 270 271 268 260 246 266 264 261 260 255 266 270 272
270 269 268 271 273 282 297 304 306 291 278 273 270 270 277 276 282 291 291 285 282 276 280 281 280 281 281 283 283 279 274 276 277 266 226 245 260 263 260 256 261 267 270
268 272 273 271 271 275 290 301 304 289 282 279 273 268 280 287 291 294 291 285 286 285 279 281 282 283 282 280 283 276 270 274 275 273 231 228 246 249 268 256 257 267 273